GFSNW_925_temp_000.txt.gz
Temp
14 15 16 17 19 19 19 18 22 17 19 22 20 22 22 19 21 21 21 21 21 21 20 20 20 20 20 18 19 20 19 19 19 20 19 19 20 20 20 18 18 17 17 19
14 15 16 17 18 19 19 22 21 17 17 20 18 19 19 20 21 20 21 20 20 20 19 19 20 19 18 18 20 19 19 18 19 20 19 20 20 19 19 18 16 16 15 19
14 15 16 17 17 19 19 21 19 20 20 18 22 21 20 20 19 19 20 19 20 20 20 19 19 19 18 17 18 12 17 18 18 20 19 19 18 19 19 18 16 17 18 19
14 14 16 17 18 19 18 19 19 17 19 19 21 21 21 20 20 20 20 20 21 20 18 19 18 19 18 17 14 17 18 17 18 18 18 19 18 18 18 18 18 16 18 19
13 14 15 17 18 19 17 20 19 17 17 18 20 18 21 20 19 20 20 20 20 20 19 20 19 19 19 19 18 18 17 17 14 15 16 17 17 18 18 18 18 18 18 18
13 14 15 16 18 19 18 13 14 20 11 17 20 19 20 20 20 18 20 20 20 18 19 20 18 18 18 18 18 17 16 15 14 14 14 14 14 16 18 18 18 18 16 18
12 13 14 15 17 18 17 14 17 18 16 17 19 19 20 19 19 19 18 20 17 17 16 17 17 16 16 16 15 15 11 13 11 13 12 15 17 18 18 17 18 19 18 17
12 13 14 15 16 17 17 16 16 16 10 16 17 19 18 18 18 18 18 16 15 17 17 16 12 15 11 12 13 13 14 13 11 12 14 16 17 17 17 16 17 17 16 15
12 12 13 14 15 16 17 16 15 16 11 15 18 18 19 18 17 17 15 14 13 16 14 14 13 16 15 17 15 11 12 11 13 12 12 13 17 16 16 16 16 15 13 12
11 11 12 13 14 15 16 15 16 16 15 15 16 18 18 17 17 18 16 15 13 15 11 12 13 16 14 16 13 12 10 10 11 12 12 14 17 15 15 13 14 13 10 10
11 11 11 12 13 14 15 14 16 15 14 15 15 15 16 16 18 17 15 16 14 12 11 10 12 11 14 14 16 14 15 13 11 11 11 11 15 15 12 14 11 9 10 10
11 11 11 12 13 14 15 14 15 16 15 15 12 12 13 15 18 17 14 16 16 16 13 10 9 11 8 12 14 15 14 15 15 14 15 17 17 14 14 11 10 11 10 10
10 11 11 11 12 13 14 15 15 15 11 13 15 15 13 14 14 15 16 13 15 14 13 12 9 10 12 10 12 12 16 15 13 13 15 16 15 15 13 11 9 9 8 10
10 10 10 11 11 12 13 14 14 14 10 8 14 12 13 13 14 14 15 14 11 12 12 7 8 10 14 10 15 14 16 15 14 12 14 14 14 12 10 9 8 8 10 10
10 10 10 10 11 12 13 13 13 14 15 12 13 11 10 11 12 14 13 14 14 11 9 6 10 11 11 10 10 12 16 15 12 10 13 12 12 10 10 9 9 10 9 10
10 10 10 10 11 11 12 14 13 13 14 11 12 11 11 10 12 13 13 14 13 13 11 9 11 13 13 9 9 12 15 15 13 12 12 12 10 9 10 10 10 9 9 9
10 10 9 10 9 11 12 13 11 12 13 9 11 11 9 8 10 9 11 10 12 11 11 10 11 12 12 8 9 13 13 11 11 10 9 9 10 10 9 8 9 9 9 9
9 9 9 9 9 10 10 10 11 11 10 8 9 8 9 8 9 8 6 7 9 10 11 7 10 10 10 9 13 11 10 10 10 10 10 10 9 9 9 9 9 9 9 9
9 9 9 8 9 8 9 10 10 10 10 10 7 9 9 8 6 6 6 7 9 8 7 7 8 8 9 11 11 9 8 9 10 9 9 9 9 9 9 9 9 8 8 7
9 8 8 4 6 8 8 8 8 6 6 7 8 9 10 10 6 6 7 6 8 9 7 6 6 7 7 7 7 8 8 9 9 8 7 8 8 8 8 7 7 6 6 4
7 4 3 4 6 7 5 6 7 5 6 5 5 5 7 5 8 7 4 6 6 9 8 8 8 10 9 8 8 8 8 8 8 8 8 7 7 7 6 6 5 4 3 3
6 5 5 5 5 4 7 6 4 5 7 4 5 5 5 4 5 6 4 6 5 8 6 6 8 10 8 8 8 8 7 7 7 7 7 6 5 5 4 4 3 3 1 0
6 4 3 4 3 6 7 8 7 6 5 4 4 5 5 4 4 4 6 6 7 5 5 8 10 9 8 8 8 7 7 6 4 6 6 5 5 4 2 2 2 1 0 0
4 4 6 6 6 6 6 7 7 4 5 5 4 4 5 3 4 4 6 4 5 6 6 7 8 8 8 7 6 7 7 4 3 4 4 3 2 2 2 1 1 -0 -1 -0
4 5 6 5 3 4 4 4 4 3 4 4 4 3 5 4 4 4 3 4 6 7 8 8 8 7 7 6 5 6 4 3 2 4 3 2 2 1 0 1 1 -1 -1 -1
4 3 4 3 4 4 3 4 3 3 2 2 4 4 5 4 5 4 5 6 7 7 6 6 6 5 5 5 5 4 4 3 3 3 2 2 1 0 1 0 -0 -0 -1 -1
3 2 2 2 3 5 4 4 3 2 3 4 5 5 5 2 4 4 4 5 6 5 5 5 4 5 5 5 4 3 2 2 2 2 2 2 1 -0 -1 -1 1 -0 -1 -2

GFSNW_925_temp_003.txt.gz
Temp
15 15 16 18 19 19 20 22 24 19 20 24 25 24 24 20 24 24 24 25 25 24 24 23 23 23 23 22 22 22 21 22 21 23 22 22 23 23 22 20 20 20 19 20
15 15 16 17 18 19 22 24 23 19 20 22 21 23 22 24 24 24 24 23 24 24 23 22 23 22 20 21 22 21 21 21 21 23 22 22 22 22 21 20 18 18 18 20
15 15 16 17 18 19 20 24 21 23 23 24 24 23 23 22 23 22 23 23 24 23 22 23 22 21 20 20 21 14 18 21 21 21 22 22 21 21 22 21 18 19 19 21
15 15 16 17 18 19 19 24 22 22 22 22 24 24 24 23 22 23 24 23 23 23 21 22 21 22 20 20 15 19 21 19 20 21 21 21 21 21 21 21 21 19 20 21
14 15 16 17 18 19 22 23 22 22 22 24 24 20 23 24 23 23 23 23 23 23 21 22 21 22 21 21 20 20 20 18 17 17 20 20 19 21 21 21 21 21 21 20
14 15 16 17 18 19 22 19 19 23 15 22 22 22 23 23 22 21 24 23 23 20 22 22 21 21 21 21 20 19 18 17 17 16 17 16 15 19 21 21 21 20 19 20
14 14 15 17 18 19 20 19 22 20 19 21 23 23 23 23 23 22 23 23 20 20 21 20 20 19 19 19 18 19 16 16 13 13 13 15 19 21 21 20 20 21 21 20
13 14 15 16 17 18 18 17 21 19 15 22 21 22 23 21 21 21 21 19 20 21 21 18 14 15 11 14 17 17 18 15 13 13 16 18 19 19 19 18 18 20 19 17
13 13 14 15 16 17 16 15 16 20 13 17 22 22 22 20 20 19 17 17 18 19 17 15 13 17 18 18 17 16 15 15 15 13 13 14 18 19 18 18 16 17 16 15
12 13 13 14 15 16 16 15 17 21 18 20 22 21 21 22 21 20 18 17 16 19 13 14 14 18 18 18 14 11 11 11 13 13 13 15 19 18 18 15 15 15 14 12
11 12 13 14 14 15 15 15 17 17 18 18 18 19 20 20 21 18 19 18 17 16 12 12 14 13 17 17 19 16 15 13 11 13 12 13 18 17 14 16 16 14 12 12
11 11 12 13 14 15 16 18 16 16 19 18 15 15 15 17 21 21 18 20 18 18 16 13 13 13 10 14 16 20 17 17 16 16 17 19 17 13 15 16 14 12 11 10
10 11 11 12 13 14 15 16 15 17 14 17 18 18 15 16 17 18 18 17 20 18 19 14 12 10 14 11 15 17 18 20 16 15 17 17 16 16 15 13 13 11 11 12
10 10 11 11 12 13 14 15 14 16 14 11 17 13 16 14 15 17 18 18 16 17 16 10 9 11 17 12 17 17 18 18 17 16 17 17 16 14 13 13 12 11 12 13
10 10 10 11 11 13 13 13 13 14 17 14 15 15 13 14 15 17 17 17 17 15 11 8 10 15 16 14 12 15 18 17 15 15 16 14 13 13 14 13 12 12 12 12
10 10 10 10 11 12 13 17 14 14 14 13 14 14 14 14 15 16 16 17 18 17 14 10 15 17 16 10 12 16 17 17 17 15 14 11 11 12 11 13 13 12 11 11
10 10 10 10 10 11 14 15 12 13 13 12 12 14 13 12 14 15 16 14 16 15 13 12 12 14 14 10 12 16 16 16 15 13 12 10 10 12 12 11 11 10 11 11
9 9 9 10 10 10 11 11 11 12 14 12 11 10 10 11 12 11 11 12 11 13 14 10 11 14 12 11 14 16 16 14 13 11 10 12 13 12 12 11 11 11 11 10
9 9 9 9 9 9 10 11 11 11 12 12 8 10 10 12 9 8 8 9 10 10 9 9 11 10 10 13 15 14 13 13 12 13 13 12 11 11 11 11 11 10 10 9
9 8 8 5 8 9 10 10 11 9 10 10 9 12 10 13 8 7 8 8 9 9 8 7 6 8 12 13 13 13 12 12 12 11 11 10 10 10 10 10 9 8 8 6
6 4 4 5 6 7 7 7 8 8 7 7 9 9 9 9 9 8 6 7 7 9 8 8 9 10 12 12 11 11 11 12 11 11 10 10 10 9 9 8 7 6 5 4
5 5 5 6 5 5 9 7 5 6 9 6 6 6 9 5 7 6 4 6 6 9 9 8 9 13 12 11 11 11 10 10 10 9 9 9 8 8 7 6 5 5 4 2
5 3 3 4 3 6 7 8 7 7 5 4 4 5 4 4 5 4 6 7 8 7 7 9 12 12 12 12 11 10 9 8 7 8 8 8 7 6 4 4 3 3 2 2
3 3 6 6 6 6 6 7 6 5 5 4 4 4 5 3 5 5 7 5 6 7 8 9 11 11 11 11 10 9 9 4 5 6 6 6 4 3 3 3 3 2 1 2
4 4 6 6 4 4 3 3 4 4 4 5 6 5 7 5 5 5 5 5 7 8 10 10 10 10 9 7 7 7 6 3 4 6 6 4 3 2 2 2 2 1 1 0
5 4 4 4 5 4 3 3 3 4 4 4 6 6 6 6 6 5 6 7 8 9 8 8 9 7 7 7 7 6 6 5 5 5 5 4 3 2 2 2 1 1 1 0
4 4 3 4 5 5 4 4 4 4 4 5 5 6 6 4 6 6 8 7 7 7 7 8 7 7 7 7 6 5 4 4 4 4 4 4 3 2 1 0 3 3 2 1

GFSNW_925_temp_006.txt.gz
Temp
14 15 16 18 18 19 19 23 22 20 22 23 24 24 26 22 25 25 26 26 26 26 25 25 24 24 23 23 24 23 22 23 21 23 23 24 24 23 23 19 20 20 19 19
14 15 15 17 19 19 20 23 22 20 21 22 22 24 25 26 25 25 25 25 25 26 25 23 24 22 22 22 22 20 21 22 21 22 22 23 23 23 22 20 18 17 17 19
14 15 16 17 18 19 19 24 21 22 22 24 24 24 23 23 25 24 25 25 25 24 23 24 23 21 21 21 20 15 18 22 21 20 22 23 22 23 23 22 18 18 18 20
14 15 16 17 18 19 19 24 23 24 21 23 25 25 25 24 23 24 25 24 25 24 23 23 23 22 21 21 16 20 21 20 21 21 21 22 22 22 22 21 21 19 20 21
14 15 16 17 18 19 20 23 23 23 24 24 24 21 25 25 25 24 24 24 25 24 22 23 22 23 23 22 21 21 21 18 17 18 21 21 20 20 21 21 22 21 21 20
14 15 16 17 18 19 23 22 22 24 19 24 23 23 24 25 24 23 25 25 24 20 22 22 22 22 22 22 21 20 19 17 16 16 16 16 15 18 21 21 22 21 18 20
14 15 15 16 18 19 19 20 23 20 19 23 23 24 25 25 23 23 24 24 20 21 22 20 20 20 20 20 20 20 16 16 13 14 13 16 20 21 22 20 21 21 21 20
13 14 15 16 17 18 19 19 21 19 13 21 24 23 24 24 23 23 21 21 22 22 21 17 15 14 12 15 19 19 19 15 12 13 15 17 19 20 18 17 17 20 19 17
13 14 15 15 16 17 18 17 18 20 14 20 24 23 23 21 21 19 18 20 21 21 17 14 12 17 19 17 17 17 17 15 15 12 13 14 18 20 19 19 16 17 16 15
12 13 14 15 15 16 17 16 17 18 19 22 22 22 21 22 20 19 19 18 17 20 13 12 15 18 20 18 15 12 11 13 12 13 13 14 19 19 18 15 15 15 14 14
12 12 13 14 15 16 17 16 17 17 17 19 21 21 23 22 22 17 19 18 18 15 11 13 15 13 16 17 19 14 12 12 11 13 13 13 18 18 15 16 16 15 14 13
11 12 12 13 14 15 17 18 17 17 19 18 17 16 17 18 19 21 19 20 18 17 15 14 14 13 11 13 16 21 17 17 16 15 15 18 18 16 16 14 14 13 12 12
11 11 12 12 13 15 16 17 16 18 16 18 18 18 17 17 17 19 18 18 21 19 19 13 11 9 13 11 15 17 19 20 16 16 18 18 18 18 14 14 14 13 13 12
10 11 11 12 13 14 15 16 15 17 13 9 17 15 17 15 17 19 19 20 18 18 15 9 9 10 17 13 16 16 18 19 18 17 18 18 17 14 14 13 13 12 13 13
10 10 11 11 12 13 14 14 14 15 17 12 16 17 16 16 17 18 18 18 17 15 11 8 10 14 15 14 13 14 17 17 15 15 17 15 14 13 13 12 12 13 13 12
10 10 10 11 11 13 14 17 14 14 15 12 12 16 16 16 16 18 18 18 18 17 13 10 14 17 15 11 12 16 18 19 18 17 15 14 13 13 13 13 13 13 12 12
10 10 10 10 11 11 13 14 12 13 14 11 11 13 14 14 16 17 17 17 17 16 15 13 12 15 15 9 11 16 18 18 17 15 14 13 13 12 13 12 12 11 12 11
9 9 9 10 10 11 12 11 12 13 15 12 12 11 11 13 13 12 12 11 12 13 14 12 12 14 12 12 14 16 17 17 15 13 13 13 13 13 13 12 12 11 11 10
9 9 9 9 10 11 12 12 12 12 13 13 8 10 10 13 8 8 9 11 10 12 9 10 11 10 10 13 15 16 17 15 14 13 13 13 13 12 12 12 11 10 10 9
9 8 8 6 8 9 10 12 12 11 12 11 9 12 11 12 8 8 8 7 9 9 9 7 7 10 13 15 16 15 14 14 13 12 11 12 11 11 11 10 10 9 7 6
7 5 4 5 7 8 9 8 9 9 9 9 9 10 9 10 9 8 7 7 8 9 9 9 8 9 11 13 14 13 13 13 13 13 12 11 10 10 9 8 7 6 5 5
5 5 5 6 5 5 8 7 6 7 10 7 6 8 9 7 10 8 5 7 6 9 8 7 9 12 14 13 11 12 12 12 11 11 10 9 9 8 7 6 6 5 4 4
5 4 3 4 3 6 7 8 7 7 5 4 5 5 5 5 5 5 5 7 8 6 8 9 11 12 12 12 11 11 10 8 9 9 9 8 7 6 5 4 4 3 3 3
3 3 6 5 6 6 6 5 5 4 4 4 4 4 5 3 5 4 7 6 6 8 8 9 9 11 12 11 10 10 7 3 5 6 6 6 5 5 4 3 3 3 2 2
4 4 6 5 4 3 3 2 3 3 3 3 4 4 5 4 5 5 6 6 7 8 8 7 8 7 7 7 8 6 4 2 3 6 6 5 4 4 3 3 3 2 2 2
5 4 5 4 5 4 3 3 3 3 3 4 5 5 6 6 6 6 7 7 8 7 7 7 7 6 6 6 6 6 6 5 5 5 5 4 4 3 3 3 3 2 2 1
4 4 4 4 5 4 4 4 4 4 4 5 5 6 5 5 6 6 6 7 6 6 7 6 6 6 6 7 7 5 5 4 5 5 5 4 4 4 3 1 2 2 3 3

GFSNW_925_temp_009.txt.gz
Temp
14 14 15 17 18 18 18 18 17 20 21 16 16 18 24 22 24 24 24 24 25 24 24 22 22 20 20 20 20 21 20 18 15 20 22 23 23 21 19 12 16 12 11 14
14 14 15 16 18 18 19 17 16 20 19 14 13 21 24 25 23 24 25 23 23 24 22 21 20 19 19 19 18 18 19 18 14 18 20 21 22 22 19 16 12 15 10 13
14 15 15 16 18 18 19 17 15 16 16 17 20 22 22 22 23 23 24 23 24 22 22 22 19 19 20 19 18 16 17 20 17 14 19 20 20 20 20 16 11 13 13 17
14 15 15 16 18 18 19 18 17 16 15 17 19 21 21 21 22 23 24 23 23 22 21 21 18 18 18 19 17 19 18 16 17 18 19 20 20 19 19 19 17 14 15 17
14 15 16 16 18 19 19 18 17 18 17 20 21 18 22 21 22 22 22 22 22 21 20 19 19 19 18 19 18 19 17 13 16 16 17 17 16 17 17 18 18 18 19 18
14 15 16 16 18 19 19 21 21 16 15 19 17 19 23 23 21 22 22 21 17 15 18 17 16 16 17 18 18 17 15 12 10 13 13 12 12 16 18 19 19 19 16 17
14 15 16 16 18 19 19 19 18 13 13 17 19 22 22 21 22 21 19 18 16 18 17 15 14 14 15 17 17 16 13 11 8 9 9 11 16 18 19 17 17 17 16 14
13 14 15 16 17 18 19 19 17 11 9 16 20 22 22 19 17 17 18 18 18 16 17 11 13 10 11 13 17 16 15 9 7 9 10 13 16 18 16 16 15 15 14 13
13 14 15 16 17 18 18 18 18 14 10 14 21 21 18 15 15 15 17 17 18 16 8 8 10 11 14 13 15 13 13 10 8 8 8 8 13 17 17 17 11 14 13 12
13 14 15 15 16 17 18 17 18 17 12 16 18 17 17 17 15 13 15 16 16 13 8 10 9 11 15 12 11 9 7 7 7 10 6 9 13 17 17 12 11 13 12 12
12 13 14 15 16 17 17 17 17 17 12 15 16 16 19 17 14 11 14 12 11 7 9 8 8 9 10 13 13 10 9 8 9 10 9 9 15 16 13 12 13 12 12 11
12 13 13 14 15 16 17 17 17 17 14 14 16 16 17 17 18 14 14 14 14 11 10 8 9 8 10 8 11 14 12 11 9 10 10 12 15 14 13 12 12 11 11 11
11 12 13 14 15 16 17 16 17 17 10 13 14 15 17 18 18 19 13 12 15 14 12 9 10 8 9 8 9 15 15 15 10 12 14 16 14 13 13 12 11 11 11 12
11 11 12 13 14 15 15 15 16 16 9 7 12 16 16 17 18 18 19 17 16 13 8 7 8 7 11 7 10 9 12 15 15 12 15 15 12 11 11 11 12 11 12 11
10 11 11 12 13 14 15 15 15 15 14 8 9 16 15 16 17 18 18 17 13 10 7 7 7 6 9 5 7 8 14 13 10 10 13 12 11 11 12 11 11 11 11 10
10 10 11 11 12 14 14 12 14 15 14 8 8 13 15 16 16 17 17 16 13 11 7 6 9 13 10 8 8 12 15 15 15 13 12 11 10 12 12 11 11 10 10 11
10 10 10 11 11 12 12 11 12 14 14 7 8 8 10 13 15 11 11 14 12 12 8 6 6 9 11 6 9 12 14 15 13 12 11 10 11 11 11 11 11 11 11 9
10 10 10 10 11 12 12 12 13 13 13 8 9 9 7 12 7 7 8 7 8 10 9 8 8 8 6 7 11 13 14 14 11 11 11 11 11 11 11 11 10 8 7 7
9 9 10 11 11 11 10 12 12 13 12 7 6 8 8 9 7 6 6 7 8 8 7 8 9 7 9 10 11 13 13 13 11 11 11 11 11 11 9 8 8 7 5 5
8 9 9 6 8 9 11 12 8 6 6 6 7 7 9 9 5 6 6 5 7 8 7 7 6 9 10 12 13 12 12 12 11 10 10 10 9 8 7 7 6 5 5 5
8 5 4 6 8 9 6 7 7 7 7 7 7 7 8 7 7 6 5 6 6 8 7 8 7 8 8 10 10 10 11 11 11 10 9 9 8 7 6 5 5 5 5 4
6 6 6 6 5 5 7 7 6 7 8 5 6 6 7 5 7 6 5 7 6 8 6 7 8 7 9 9 9 10 10 10 9 8 8 7 6 6 5 5 4 4 4 4
6 4 3 5 3 6 7 8 7 7 4 4 4 5 4 4 4 4 5 7 7 5 7 7 5 10 10 9 7 6 6 6 7 6 6 6 6 6 5 4 4 3 3 3
3 4 5 5 6 5 5 5 5 3 3 3 3 4 4 3 5 4 6 5 5 7 7 5 6 6 6 7 6 6 4 3 4 5 6 5 5 5 4 4 3 3 3 3
4 4 6 5 3 3 2 2 2 2 2 3 3 3 4 4 4 4 5 5 6 6 7 5 4 4 5 4 4 3 2 2 3 5 4 5 4 4 3 3 3 3 3 2
3 3 4 3 4 4 3 3 3 2 2 2 3 4 6 5 5 5 6 6 7 6 4 3 3 4 4 4 3 4 4 4 4 4 4 4 4 4 3 3 3 3 2 2
4 3 2 3 3 4 3 2 3 3 3 4 4 5 4 3 5 5 5 5 5 4 3 2 4 4 4 4 5 5 5 4 4 4 4 4 4 4 3 2 3 3 3 3

GFSNW_925_temp_015.txt.gz
Temp
13 14 15 16 17 18 17 14 15 17 19 15 11 15 18 20 22 22 22 21 22 20 20 18 18 18 18 16 18 19 18 15 14 19 19 19 20 19 16 12 16 10 10 13
14 14 15 16 17 17 18 13 13 17 19 12 10 16 20 21 22 22 22 22 21 20 18 17 18 17 17 17 17 18 18 15 13 16 17 18 20 18 14 12 10 13 10 12
14 14 15 16 17 18 20 12 13 12 12 12 16 18 20 21 21 22 21 21 20 20 18 16 16 17 18 17 17 15 16 15 15 14 17 17 18 18 16 15 11 12 11 15
13 14 15 16 17 18 19 13 14 14 13 14 16 18 20 20 21 22 21 21 21 19 18 17 16 17 17 17 16 16 15 15 16 15 14 17 18 18 15 15 14 14 14 13
13 14 15 16 17 17 17 14 13 12 13 15 16 16 18 19 20 21 21 19 18 19 18 17 16 16 17 17 17 15 13 12 15 15 13 13 16 16 14 14 15 14 14 14
14 14 15 16 17 17 16 15 14 13 11 13 14 15 18 18 19 18 18 16 15 15 16 15 14 14 14 15 16 13 12 10 10 12 10 12 12 13 14 16 16 15 13 13
13 14 15 16 17 18 19 17 14 12 11 13 15 18 19 18 19 18 17 16 15 16 13 14 13 12 12 13 12 13 10 8 5 8 8 11 15 14 15 16 15 13 12 11
13 14 15 17 17 19 19 18 15 11 8 13 17 16 15 15 14 15 15 15 14 13 12 10 13 9 11 11 11 11 11 7 6 8 9 12 16 15 14 14 14 12 11 11
13 14 15 16 18 20 20 17 17 12 11 14 16 15 15 13 13 13 15 13 13 11 5 8 10 12 14 13 13 11 9 7 7 6 8 10 13 14 14 15 11 11 11 10
13 14 15 16 18 20 19 17 16 15 11 13 16 14 14 12 12 11 14 15 14 11 4 5 7 11 12 11 10 8 6 4 6 1 5 9 11 14 15 13 12 10 10 10
13 14 15 16 17 18 19 16 17 17 10 13 14 15 13 13 12 11 12 12 10 6 8 7 6 6 9 10 11 10 9 8 6 6 5 11 12 13 13 12 11 11 9 9
13 14 15 16 17 18 18 17 16 18 11 13 14 15 15 16 15 11 11 13 11 10 7 5 7 7 8 8 10 11 11 10 9 10 10 12 11 13 12 10 11 9 9 9
13 14 15 16 17 18 19 17 17 17 8 11 13 13 16 16 16 17 12 8 12 10 8 7 5 7 5 8 8 11 11 11 9 11 13 11 11 12 12 10 10 9 9 8
13 14 15 15 16 17 18 17 15 16 6 7 11 14 15 16 17 17 17 13 10 8 6 5 5 6 8 6 9 8 10 11 11 9 11 11 11 11 11 10 9 9 9 9
12 13 14 15 15 16 17 16 14 15 13 9 7 12 14 15 16 16 15 13 10 8 6 5 7 4 6 5 5 7 10 12 9 11 12 12 12 11 9 8 9 9 9 8
12 13 13 14 14 16 17 11 14 14 14 8 9 9 10 12 14 13 12 11 9 8 7 5 5 8 7 8 9 10 11 12 12 13 11 10 11 9 9 9 9 9 7 7
11 12 13 14 14 15 12 11 11 13 14 6 8 6 8 10 10 8 9 8 8 9 7 5 6 7 8 6 8 12 11 11 11 11 10 10 9 9 9 9 7 7 6 6
11 11 12 12 13 13 12 11 12 13 12 5 6 6 6 9 6 7 6 6 7 7 8 6 7 6 5 8 9 10 12 12 11 10 10 11 9 8 8 7 7 6 5 4
11 11 12 12 12 9 9 11 12 13 12 6 5 8 8 6 6 4 5 5 7 6 7 6 7 7 9 10 11 11 11 11 11 10 10 8 8 8 7 6 5 4 3 3
11 12 10 6 7 8 10 12 6 5 6 4 5 6 8 8 4 5 5 4 6 8 7 7 7 8 7 8 8 8 8 9 9 8 7 7 7 6 5 4 4 3 4 3
10 7 5 8 8 9 5 6 6 6 7 6 5 5 7 5 7 7 4 6 5 9 6 8 8 7 7 6 5 5 5 6 6 6 6 5 4 3 2 1 2 4 3 3
8 7 7 8 5 4 7 7 6 6 7 5 6 5 6 5 4 6 5 7 6 9 5 7 8 5 5 4 4 4 4 3 3 3 3 3 3 3 3 3 3 3 3 3
8 6 4 7 4 8 9 9 7 7 4 4 4 6 3 4 4 5 5 7 7 4 7 8 6 5 5 5 4 3 3 2 2 3 3 3 2 3 3 3 3 3 3 3
4 5 6 6 5 5 5 5 5 3 3 3 3 4 4 3 5 5 7 5 5 7 6 5 4 4 3 3 3 3 3 1 2 2 3 3 3 3 3 4 3 3 2 3
3 4 4 3 3 2 2 2 3 2 2 3 3 3 4 4 5 4 4 5 6 5 4 4 3 2 2 1 1 1 1 0 2 3 3 3 4 3 3 3 2 1 2 2
4 3 4 3 4 4 3 3 3 2 2 2 2 4 5 4 4 5 5 4 3 3 3 3 3 3 2 1 1 2 3 3 2 2 2 2 2 2 2 2 3 3 2 2
4 3 2 3 3 3 3 2 2 2 3 4 3 3 3 3 4 5 4 4 3 3 3 2 2 1 1 2 3 2 3 2 2 2 3 3 2 2 2 1 3 3 3 3

GFSNW_925_temp_018.txt.gz
Temp
12 12 13 14 15 15 14 13 14 16 18 14 10 15 17 19 21 21 21 20 21 19 19 18 18 18 18 16 17 19 17 14 14 19 19 18 19 18 15 12 15 9 10 12
12 13 13 14 15 16 16 12 13 16 18 12 9 15 19 20 21 21 21 21 20 19 17 17 17 17 17 16 17 17 16 15 13 16 17 17 19 16 13 11 10 13 10 12
12 13 14 15 15 16 18 12 13 12 10 11 15 18 19 20 20 21 20 19 19 18 17 15 16 17 17 17 16 14 15 14 15 15 17 16 17 17 15 14 10 12 11 15
12 13 14 15 16 16 16 11 13 13 12 13 14 17 19 19 20 20 19 20 20 18 17 17 16 16 17 17 15 15 14 15 15 14 13 16 17 17 14 15 14 14 14 12
12 13 14 15 16 15 15 13 12 10 11 13 15 14 17 18 20 20 20 19 18 19 17 17 15 15 16 17 15 15 12 12 15 15 12 12 15 15 14 13 14 13 13 13
13 13 14 15 15 16 14 13 13 12 9 12 13 13 17 18 18 17 17 18 16 17 17 14 13 13 12 14 14 12 12 10 11 12 10 11 11 13 13 13 13 13 13 15
13 13 14 15 16 17 19 16 13 11 10 11 14 16 17 17 18 17 16 16 15 15 12 12 13 11 11 11 11 11 10 9 5 8 7 11 15 14 14 14 14 13 13 13
13 14 15 16 16 18 18 17 15 10 6 11 15 15 14 14 13 14 14 13 13 12 12 11 13 10 11 11 10 9 9 7 6 8 8 12 17 14 13 14 14 12 12 11
13 14 15 16 17 17 18 17 18 11 10 12 15 14 14 13 12 13 13 13 12 10 5 8 10 12 14 14 13 10 8 7 7 3 8 10 13 14 14 15 12 12 11 9
13 14 15 16 17 17 18 16 16 14 11 12 14 14 13 11 11 11 12 14 15 11 4 5 8 11 11 12 11 8 6 5 6 1 5 9 11 14 14 13 13 10 10 9
14 14 15 16 16 17 19 17 17 14 9 12 14 14 12 12 11 11 11 11 10 6 9 7 7 5 8 10 11 9 9 8 6 4 4 11 11 14 13 12 12 10 9 8
14 14 15 16 17 18 20 16 16 15 11 11 13 14 14 15 14 10 10 13 11 10 7 4 4 7 6 8 10 10 11 10 9 9 10 11 11 12 12 11 11 10 9 9
14 14 15 16 17 17 18 17 16 17 8 10 12 13 15 15 15 16 11 8 11 10 8 5 4 7 5 7 7 11 10 10 8 11 13 10 10 10 10 11 10 11 9 8
13 14 15 16 17 17 19 18 14 16 6 7 11 13 14 14 15 16 16 11 9 7 6 4 5 6 7 6 8 8 10 10 11 9 10 10 10 10 10 10 9 9 8 8
13 14 15 15 16 17 18 16 13 15 12 8 7 11 12 13 14 14 13 11 9 7 6 5 7 3 6 5 5 6 9 11 9 10 12 12 12 13 11 9 9 8 8 7
13 14 14 15 16 16 18 11 14 14 14 8 9 8 9 11 12 11 10 10 8 8 7 5 5 7 7 7 8 10 11 11 11 13 12 10 11 10 10 9 8 8 6 6
13 14 14 15 15 17 10 10 11 13 14 7 7 6 7 8 9 6 7 8 7 8 6 5 5 6 7 5 6 12 12 11 11 10 10 11 9 10 8 8 6 6 6 5
12 13 13 14 14 14 12 11 13 13 12 5 6 6 6 7 6 7 6 6 7 7 7 6 6 6 5 8 8 9 10 10 10 10 9 10 9 7 6 6 6 5 4 3
12 12 13 14 13 8 9 11 12 13 11 6 5 8 8 6 5 4 5 5 7 6 7 6 7 6 8 7 6 7 7 8 8 9 9 8 6 6 5 5 5 4 2 1
12 13 11 6 7 8 11 12 6 5 4 5 5 5 7 8 4 5 5 4 7 9 6 7 7 7 6 4 4 4 4 5 7 9 6 5 4 3 4 3 3 3 2 1
11 5 5 8 9 9 4 5 5 7 7 6 5 5 7 5 7 7 3 7 5 9 8 8 7 7 4 3 3 3 3 3 3 3 3 4 4 3 2 2 1 2 2 2
9 7 8 8 5 5 6 6 5 6 7 4 6 5 6 4 4 6 5 7 6 8 5 7 7 4 4 3 3 3 3 3 3 3 3 3 3 3 2 2 1 1 1 1
9 6 4 7 4 8 6 8 7 7 4 4 4 5 3 4 4 5 5 7 7 4 6 7 6 5 4 3 3 2 2 2 3 3 3 3 3 1 1 -0 1 0 1 1
4 5 7 6 6 5 5 5 5 3 3 3 3 4 4 3 5 4 7 5 5 7 6 5 4 3 2 2 2 2 1 0 1 1 1 1 0 1 1 2 2 1 2 1
4 4 5 4 2 2 2 2 3 2 2 2 3 4 4 4 5 4 4 3 3 3 2 4 3 2 2 1 2 1 1 0 2 2 2 1 2 2 2 2 2 2 2 2
3 3 3 3 3 3 3 3 3 2 2 2 3 4 4 4 4 4 4 3 2 1 3 2 2 1 1 1 2 2 2 2 2 2 2 2 2 2 1 2 2 2 1 1
4 3 2 2 3 3 3 2 2 2 3 4 3 2 4 3 3 4 3 3 2 3 2 2 1 1 1 1 1 2 2 2 2 2 1 1 0 0 0 -1 -0 0 1 1

GFSNW_925_temp_021.txt.gz
Temp
11 11 12 12 11 11 10 11 14 14 16 14 11 15 16 18 20 20 20 20 20 19 19 18 18 18 18 16 17 19 17 16 17 19 18 18 18 18 17 17 17 13 15 19
11 12 12 12 11 12 12 12 13 14 16 13 11 15 18 19 20 20 21 20 19 18 17 18 17 17 16 16 17 17 17 16 17 19 19 18 19 17 15 14 14 15 16 19
11 12 13 12 13 13 16 12 13 13 11 11 15 17 18 20 19 20 19 18 18 17 17 16 16 16 16 16 16 13 15 15 17 19 18 17 17 16 15 17 16 16 16 18
11 12 12 12 13 13 15 11 13 13 13 13 14 17 17 19 20 20 19 19 19 17 17 16 16 16 16 16 14 14 16 17 15 14 14 15 17 16 15 17 16 18 17 16
11 12 13 12 13 13 12 13 12 10 11 13 15 15 17 18 19 19 20 18 17 18 17 18 16 16 16 17 15 15 13 15 14 15 13 13 15 16 15 15 15 16 15 16
11 12 12 12 13 13 13 11 12 13 9 12 14 14 15 17 17 16 16 17 16 17 17 15 13 13 13 15 15 13 13 13 13 15 11 13 14 15 16 15 15 17 16 18
11 12 12 13 14 15 17 15 13 11 10 11 14 15 17 16 17 17 15 15 16 14 12 13 14 13 12 13 11 12 11 11 9 13 10 15 17 15 15 15 15 15 15 15
11 12 12 13 15 16 16 16 14 10 8 11 14 14 14 13 13 14 14 13 12 12 13 13 14 12 12 11 10 11 11 10 9 13 13 14 18 14 14 15 18 15 15 14
12 12 13 14 15 16 16 16 17 11 10 11 14 14 14 13 12 13 12 12 11 10 8 11 13 14 15 15 13 10 10 9 12 9 14 15 16 15 14 15 15 15 14 12
12 13 14 14 15 16 16 15 17 14 11 12 13 14 14 12 12 12 11 13 14 11 8 10 12 14 12 15 13 10 9 8 11 7 12 13 13 14 14 16 17 13 12 12
13 13 14 15 16 16 16 15 16 15 10 12 13 13 12 12 12 13 12 13 11 9 11 11 10 11 11 12 13 11 12 11 10 7 10 14 12 14 15 15 13 13 12 12
13 14 15 16 16 16 17 14 13 15 11 12 12 13 13 14 14 11 10 14 12 12 10 8 7 9 7 9 14 10 13 13 13 12 14 13 12 13 13 12 13 13 12 12
14 15 16 16 16 16 16 17 15 14 9 11 12 12 13 14 14 15 13 9 11 10 9 7 7 10 8 10 10 11 11 10 12 12 14 12 12 13 12 13 13 12 12 12
14 15 16 16 16 17 19 17 15 13 8 8 11 13 12 12 14 15 15 11 9 7 8 6 7 9 8 8 10 11 11 10 11 11 12 12 13 12 13 13 11 11 11 11
14 15 16 16 17 18 18 16 13 13 13 9 8 10 11 11 13 12 12 11 10 9 8 6 9 6 7 6 7 9 10 12 12 13 15 14 14 14 12 12 12 11 10 9
13 14 14 15 16 17 17 12 14 14 13 9 9 7 8 10 11 10 9 9 8 9 9 7 7 7 9 8 10 12 11 11 12 14 12 12 12 11 11 11 11 9 8 7
14 14 15 16 16 16 10 11 11 14 14 7 7 8 7 7 8 7 8 8 8 9 7 6 6 7 7 6 10 10 9 10 10 11 10 11 11 11 9 7 6 5 5 4
13 14 15 15 16 14 12 11 13 14 11 6 7 7 7 7 7 7 6 7 8 8 7 6 6 7 7 9 8 7 7 7 10 8 9 9 7 7 6 6 6 5 4 3
13 14 15 15 13 8 10 11 13 14 12 7 5 9 10 7 6 5 6 6 8 6 7 7 9 7 8 5 5 4 4 4 5 7 6 6 5 5 5 4 3 2 1 1
13 14 11 6 7 8 11 12 7 6 4 6 5 6 7 8 5 6 6 5 7 9 8 7 7 7 4 3 3 3 3 4 5 6 4 4 4 3 3 2 2 1 1 0
12 6 6 8 9 10 5 5 6 6 6 6 5 6 7 6 8 7 5 7 6 10 9 8 8 7 4 3 3 3 3 3 3 3 3 3 2 2 2 1 1 1 1 1
9 8 8 9 6 5 7 6 5 7 7 5 6 5 6 4 5 7 5 7 6 9 6 7 8 4 3 3 3 3 4 3 3 3 3 3 3 3 3 3 2 1 1 0
10 7 5 7 5 7 6 8 7 7 4 4 4 6 4 4 4 5 7 8 8 5 7 8 5 4 3 2 2 2 2 2 3 3 2 2 1 1 1 0 0 0 0 0
3 5 6 5 7 5 5 6 5 3 3 3 3 4 5 3 5 5 8 5 5 8 7 6 4 3 2 2 2 2 2 1 1 2 1 1 1 1 1 1 1 0 1 1
3 4 4 4 2 3 2 2 3 2 2 3 4 4 5 5 6 5 5 5 6 5 5 4 3 2 2 1 2 2 1 -1 1 1 1 0 0 -0 0 0 0 0 0 0
2 2 3 3 4 3 3 3 3 2 2 2 3 4 5 5 5 5 6 5 5 3 4 2 2 1 1 1 2 2 2 1 1 1 1 1 0 -1 -1 -1 -1 -1 -2 -2
3 3 2 2 3 3 3 2 2 2 3 5 4 5 5 3 5 5 4 4 4 3 2 1 1 2 1 1 1 1 1 1 0 -1 -2 -2 -2 -2 -3 -3 -4 -4 -4 -5

GFSNW_925_temp_024.txt.gz
Temp
7 8 10 11 11 10 10 16 18 13 14 19 21 21 22 21 23 22 23 24 24 24 24 23 24 23 23 21 22 23 22 23 22 23 22 22 23 24 23 22 21 20 20 24
7 7 9 11 10 10 11 17 18 13 14 19 19 20 22 22 23 23 23 24 24 23 23 22 22 22 19 19 21 23 22 22 22 22 22 22 22 22 22 21 20 21 20 24
8 8 9 10 10 12 15 19 17 17 18 20 21 21 22 22 22 23 23 22 22 22 22 21 21 21 19 19 20 13 19 22 23 23 23 23 22 21 22 23 20 22 22 25
7 8 10 11 11 12 13 19 20 20 18 18 21 22 23 23 22 22 23 22 24 23 21 21 21 21 19 19 14 19 21 22 21 20 20 20 22 22 21 22 23 21 24 23
6 8 10 11 12 11 14 19 19 17 20 20 21 19 22 23 22 23 23 23 22 23 22 23 22 22 21 22 19 20 19 20 19 19 18 19 19 21 22 22 23 22 23 23
6 8 10 11 11 11 17 15 15 21 14 19 20 21 22 23 23 19 22 23 22 22 21 20 21 19 20 21 21 19 19 18 19 19 17 17 16 20 22 22 22 22 21 24
7 9 10 11 11 13 18 17 19 20 17 18 20 21 22 22 23 22 19 21 22 17 18 19 19 19 18 19 17 18 17 18 16 17 13 17 22 20 20 21 22 23 22 23
8 10 11 11 12 14 14 15 19 19 12 19 19 20 21 20 19 19 19 17 18 18 19 19 18 17 15 16 16 16 17 17 14 16 18 21 23 20 19 19 22 23 22 22
10 10 11 11 13 13 13 15 17 20 15 17 20 20 20 20 20 18 15 14 15 16 17 17 18 19 20 18 17 15 15 16 18 14 17 17 21 18 18 19 20 20 20 20
11 11 11 12 13 13 13 15 17 20 19 18 19 20 19 20 19 19 16 15 15 16 16 16 18 19 18 19 16 13 14 13 15 15 16 18 20 18 18 18 20 20 18 19
12 11 11 12 14 14 14 13 16 18 17 16 17 17 18 17 20 19 16 17 16 16 16 16 17 16 17 18 19 17 17 15 14 13 14 16 18 17 18 20 19 18 19 19
11 11 12 12 14 14 14 14 15 16 18 16 14 13 13 16 19 19 17 20 18 20 18 14 13 12 10 16 19 15 17 18 19 18 20 18 18 19 19 17 17 18 18 19
12 12 12 13 15 15 15 13 15 15 15 16 17 16 14 13 13 14 19 16 18 17 16 16 14 13 15 13 17 17 16 16 16 16 20 19 18 18 18 18 18 18 18 18
13 13 13 14 15 15 15 15 15 16 15 11 15 13 13 11 13 14 15 16 13 14 16 13 11 14 14 15 17 17 17 15 16 16 18 18 19 19 18 18 17 17 17 17
14 14 14 15 15 14 15 15 13 15 16 13 14 13 11 12 13 14 14 15 17 16 14 11 14 13 13 10 12 15 16 17 16 17 17 17 18 17 17 16 16 15 15 15
14 14 14 15 15 15 17 16 15 14 12 16 13 12 12 12 13 13 14 15 15 16 16 12 13 11 14 11 16 14 13 13 13 14 15 15 15 15 13 13 12 11 11 11
13 14 14 14 15 17 16 15 11 13 12 14 12 13 12 10 12 10 13 13 13 15 12 9 11 12 14 10 15 11 10 11 12 12 13 15 12 11 10 10 8 7 6 5
13 14 14 14 15 15 13 11 12 13 13 15 11 11 12 10 10 10 9 10 12 10 9 8 9 9 10 12 9 9 9 9 12 10 11 11 10 10 9 8 6 4 3 2
13 14 15 14 13 12 11 11 12 13 14 14 8 12 12 10 8 8 9 10 9 9 10 10 11 9 10 6 6 6 6 6 8 8 9 9 8 5 4 3 3 2 2 2
14 16 13 11 8 9 11 12 13 12 10 9 7 8 9 10 8 8 9 8 9 10 10 8 10 6 4 4 4 4 5 7 9 7 5 3 3 3 3 2 2 4 5 5
13 9 9 9 10 11 10 9 10 11 9 8 7 9 9 8 10 9 7 9 8 10 11 10 9 7 4 4 4 4 4 4 4 3 3 3 4 3 4 5 5 4 3 3
10 10 9 9 10 10 8 8 7 9 9 7 8 7 8 6 7 9 7 9 8 11 9 9 9 5 4 3 4 4 4 5 5 5 5 5 5 5 4 4 3 2 1 0
10 9 6 10 7 9 11 9 9 8 6 5 6 7 6 7 7 7 8 9 10 8 9 9 7 4 3 3 5 5 5 5 5 5 4 4 3 2 2 1 1 0 2 1
7 8 7 8 9 7 6 7 7 4 4 5 6 6 8 6 7 7 10 6 6 9 9 8 4 3 3 3 4 5 5 1 4 4 3 2 2 1 0 -0 -0 -0 -0 -1
5 6 6 5 3 3 3 2 3 3 3 4 5 5 7 6 7 6 7 7 9 9 9 5 3 3 3 3 4 4 4 1 3 3 2 -0 -0 1 1 -1 -1 -2 -2 -3
4 4 5 4 4 4 3 3 3 2 2 3 4 6 7 7 7 7 8 8 9 7 5 3 2 2 2 4 4 3 3 3 3 2 1 -0 -1 -1 -1 -2 -3 -4 -4 -4
4 4 2 3 3 3 3 2 3 2 4 5 6 7 6 6 7 7 7 7 6 5 3 3 2 2 2 3 3 2 2 2 1 0 -0 -1 -2 -3 -2 -2 -3 -3 -3 -4

GFSNW_925_temp_027.txt.gz
Temp
8 8 8 8 8 10 10 14 17 16 15 18 19 21 24 25 26 26 26 26 26 26 26 26 26 26 27 27 27 26 26 26 24 25 26 26 26 26 26 23 24 23 23 24
8 8 8 8 8 10 11 16 18 16 17 19 20 23 24 25 25 25 25 25 26 27 26 25 26 26 22 23 25 26 25 25 23 24 25 25 25 26 26 26 23 23 21 25
7 8 8 8 8 10 13 18 18 16 17 21 22 22 23 23 26 26 26 26 26 25 25 25 25 25 22 22 24 16 20 25 25 24 25 26 24 25 26 25 22 23 25 26
7 7 8 7 8 11 13 18 21 20 18 21 23 23 24 24 24 25 26 25 25 25 24 24 24 25 22 21 16 21 23 23 25 25 24 24 25 25 25 25 25 24 25 26
6 6 7 7 8 11 11 17 22 22 21 22 22 21 23 24 25 25 24 25 26 26 25 25 25 25 24 24 22 23 23 23 22 22 23 23 23 24 25 25 25 26 26 26
6 7 7 6 9 10 13 17 20 23 20 22 21 23 24 25 26 23 26 26 26 25 25 24 24 25 25 25 23 23 22 22 21 21 21 21 18 21 24 25 26 25 24 26
6 7 6 5 9 10 16 18 21 19 19 22 22 23 24 25 25 24 24 26 25 22 23 23 23 23 22 22 21 23 21 21 19 19 15 16 24 24 24 24 25 26 26 26
5 5 5 5 8 10 16 17 19 21 15 22 23 23 24 25 24 24 23 21 23 22 23 21 20 19 17 20 21 21 22 20 17 16 20 23 24 24 22 22 23 25 24 24
5 6 5 7 9 11 10 15 18 22 19 20 23 23 24 23 22 20 18 20 21 21 22 20 20 20 22 21 20 19 19 20 19 17 16 16 22 21 22 22 21 23 22 22
5 6 7 8 10 11 9 16 17 22 22 23 23 23 23 24 23 22 18 18 18 19 19 17 20 21 22 20 19 14 16 15 16 17 17 20 23 21 21 20 20 21 21 22
7 7 9 10 11 11 9 16 15 22 21 21 21 23 23 24 23 20 20 19 19 19 18 18 20 18 20 21 22 19 18 17 15 17 14 16 22 21 20 21 21 22 21 21
8 8 10 11 11 11 12 16 15 19 22 18 18 16 17 21 24 24 20 23 21 21 21 18 18 14 13 20 20 21 20 21 21 20 21 21 22 21 22 21 20 20 20 20
9 10 11 12 12 13 12 17 17 19 19 18 19 18 16 16 17 17 21 21 23 22 21 20 18 14 19 14 20 21 21 20 19 19 22 22 22 22 21 21 20 20 20 20
10 10 11 12 12 14 11 16 16 20 18 14 17 15 16 14 16 18 18 21 18 20 20 17 12 14 20 19 20 20 20 20 20 19 21 21 21 21 19 19 19 19 19 18
11 12 13 12 12 14 12 13 13 16 21 15 16 16 14 16 17 18 18 19 19 19 17 13 17 18 17 15 17 18 20 20 18 18 18 17 19 18 17 17 16 15 15 16
13 13 12 12 13 14 14 17 14 15 18 17 15 15 15 16 17 18 19 19 20 21 19 15 18 16 18 13 18 17 16 16 15 17 16 16 16 15 14 13 12 12 12 12
13 13 12 13 14 13 14 17 14 16 16 15 14 14 15 14 17 15 17 18 18 20 17 13 16 16 18 12 17 15 13 14 14 14 15 16 14 13 12 11 9 6 5 4
13 13 13 12 13 13 14 8 12 16 16 18 13 13 14 14 14 12 14 14 17 14 12 12 13 13 14 15 13 12 12 13 12 13 13 13 13 11 9 7 6 5 4 3
12 12 12 14 14 16 12 11 15 13 14 16 9 12 12 13 11 11 12 14 12 12 11 13 14 11 13 9 10 10 10 10 11 11 11 9 7 6 6 6 5 5 4 5
14 15 16 14 10 11 12 13 15 14 13 12 9 13 12 13 11 10 10 10 11 11 11 12 12 8 6 6 7 8 8 10 9 6 4 4 5 5 6 7 7 8 7 7
13 13 10 9 10 13 13 11 13 14 12 10 9 13 11 11 11 9 9 10 10 11 12 12 10 9 6 5 6 6 6 7 7 6 5 7 7 7 7 7 6 5 4 4
11 12 10 10 13 13 10 9 9 11 10 8 9 8 10 8 11 10 10 9 10 12 12 11 11 6 4 5 5 6 7 7 7 7 7 7 7 6 6 5 4 3 3 2
11 12 8 12 8 11 9 10 9 8 7 6 8 8 8 8 10 9 10 10 11 12 10 11 7 5 4 5 6 7 7 7 7 7 6 6 4 3 3 3 2 2 3 2
9 9 9 9 8 7 6 7 7 4 5 7 8 7 9 7 8 8 9 7 8 9 10 10 5 4 3 5 7 7 6 3 6 6 5 3 3 2 0 0 -0 -1 -0 -0
7 8 7 5 4 3 3 3 4 3 4 6 8 8 9 8 9 8 8 8 10 10 9 6 4 3 4 5 6 6 4 2 5 5 2 0 1 2 2 -0 -1 -2 -3 -3
5 4 5 4 5 4 4 3 3 3 3 4 7 8 9 7 8 8 10 10 10 7 6 4 3 3 3 5 6 6 5 5 4 3 2 0 -0 1 1 -1 -2 -2 -3 -4
5 4 3 4 3 3 3 3 2 2 4 6 6 9 8 7 8 8 8 8 7 5 4 3 3 3 4 5 4 2 3 4 3 3 2 1 -0 -1 -1 -0 -1 -2 -2 -4

GFSNW_925_temp_030.txt.gz
Temp
5 6 7 8 8 9 9 13 14 16 14 15 17 18 21 22 25 27 26 27 28 27 27 27 26 26 28 28 28 26 27 26 24 25 27 27 27 26 26 22 23 23 22 23
5 6 7 8 8 8 9 14 16 15 16 16 17 19 21 24 25 26 26 26 27 28 27 26 27 27 24 25 26 25 26 25 22 24 26 26 25 26 26 26 23 22 20 23
5 5 7 7 8 8 10 15 14 14 15 20 20 20 21 23 25 26 26 26 27 27 26 27 26 26 23 24 25 18 23 25 24 23 25 26 25 25 26 26 20 22 22 25
5 5 7 7 8 8 9 14 17 17 15 17 20 22 22 23 24 26 27 26 26 26 25 26 25 26 23 23 17 22 24 23 24 25 26 25 25 26 26 25 25 22 24 25
5 6 7 8 8 8 8 15 19 20 19 19 20 20 22 24 25 25 25 26 26 26 25 26 25 26 24 23 22 23 24 23 23 23 24 25 23 25 25 26 26 26 26 26
5 6 7 7 8 7 9 14 17 18 18 19 19 21 22 24 25 26 27 26 26 26 26 26 25 25 26 26 23 23 23 21 21 20 21 21 18 22 23 25 26 26 24 25
6 6 7 7 7 7 10 14 18 16 18 20 21 21 23 24 25 25 26 27 26 24 25 25 24 24 24 24 24 25 22 22 19 18 15 17 23 25 25 24 25 26 26 25
6 6 6 7 7 7 8 14 15 15 15 21 22 22 24 25 25 25 25 23 24 24 24 21 20 19 18 21 22 22 23 20 17 15 19 22 23 25 23 23 23 24 23 23
5 6 6 6 7 7 7 9 11 14 17 20 23 23 24 23 23 21 19 22 23 24 22 20 20 20 22 21 20 21 21 21 18 17 17 17 22 22 23 23 20 23 22 22
6 5 6 6 6 7 5 9 10 13 15 22 22 23 23 24 22 20 20 19 19 20 18 15 20 21 23 21 19 13 16 16 15 16 16 18 23 22 22 20 19 21 21 21
5 5 5 6 6 8 6 8 9 12 14 22 24 25 24 24 23 19 20 20 20 20 17 18 20 17 20 22 22 18 16 16 14 17 14 15 23 21 20 20 21 21 21 20
5 5 6 5 8 8 7 9 12 11 13 19 18 18 19 21 24 22 20 22 21 21 21 19 19 14 13 19 20 23 20 21 19 19 18 21 23 21 22 21 20 20 20 20
5 5 6 8 7 7 8 9 10 11 18 18 20 19 17 17 18 21 20 21 23 23 24 20 18 13 18 14 19 21 22 22 20 20 22 23 22 22 22 21 19 19 19 19
6 7 6 6 8 9 9 9 10 15 18 13 16 17 17 16 18 20 20 23 21 21 20 17 12 14 21 18 21 20 21 21 20 20 21 21 21 19 18 18 17 17 17 16
6 7 7 9 9 10 9 10 10 14 21 15 16 17 17 17 18 19 20 21 21 20 17 11 17 19 17 16 18 18 21 21 18 18 18 18 17 16 16 15 14 14 14 12
8 8 9 10 11 11 9 13 15 15 18 16 15 16 17 18 19 19 20 20 21 21 18 15 18 18 18 13 17 19 17 17 17 17 16 16 15 14 13 10 10 10 9 9
9 9 10 11 11 10 11 14 12 16 17 16 13 13 15 18 18 17 18 20 20 20 18 16 16 17 17 12 17 16 15 15 16 15 15 14 15 12 11 8 7 6 6 5
10 10 11 11 11 10 13 12 13 14 18 17 12 11 14 15 15 14 15 16 17 15 14 14 15 14 15 15 15 14 14 14 14 14 14 12 10 9 8 8 7 6 6 5
11 11 10 10 13 14 13 14 14 15 15 15 9 12 12 15 12 11 12 15 12 13 12 15 14 12 13 13 13 12 12 13 12 11 10 9 8 8 8 7 7 6 6 6
11 11 15 10 12 12 12 13 15 14 14 13 10 13 12 13 10 10 11 10 11 12 11 13 11 9 8 9 10 10 10 11 9 7 6 7 7 7 8 8 7 5 5 5
15 13 10 10 11 13 13 10 12 13 12 11 11 13 12 11 11 9 9 10 11 12 12 12 10 10 7 7 8 8 8 10 9 7 8 7 7 7 6 6 5 4 3 2
13 12 11 11 11 11 9 9 9 10 10 8 9 10 10 9 12 11 10 9 11 12 11 11 11 7 6 6 7 7 8 8 8 7 7 7 7 7 6 5 3 3 1 -0
13 11 8 10 8 9 11 10 10 8 6 6 8 8 8 9 10 9 10 10 11 12 10 11 8 5 5 6 7 8 8 8 7 7 6 5 4 3 3 1 1 2 1 -1
9 8 7 7 8 6 6 7 6 4 4 6 7 7 8 7 7 8 9 7 9 10 10 10 5 4 5 6 7 7 6 4 6 6 4 3 1 0 -0 -0 -1 -1 -1 -2
7 7 6 5 4 3 3 3 4 3 4 6 8 8 9 7 8 8 7 8 10 10 10 6 4 4 5 6 7 5 3 2 4 3 1 1 1 1 0 -1 -2 -3 -3 -3
4 4 5 4 5 4 3 3 3 3 3 5 8 8 8 8 8 9 10 10 10 7 6 4 3 3 4 5 5 5 5 5 4 2 1 0 1 1 -0 -1 -2 -3 -3 -4
4 4 2 3 3 3 3 3 3 2 4 6 7 8 7 7 8 8 7 7 6 4 3 3 3 3 3 4 3 4 4 4 3 2 2 1 -0 -0 0 0 -1 -1 -2 -3

GFSNW_925_temp_036.txt.gz
Temp
5 5 6 5 6 7 7 9 10 11 11 11 11 13 15 15 18 19 19 21 20 21 21 20 20 21 22 21 19 20 18 17 17 20 21 22 22 21 20 14 20 16 13 17
4 5 5 6 6 7 7 9 11 9 12 11 11 14 15 16 18 18 19 20 21 24 20 22 21 21 22 21 21 19 18 18 17 19 20 21 21 22 21 18 14 17 13 16
4 5 5 6 5 7 7 9 10 11 11 12 13 13 14 15 17 17 17 18 19 20 23 21 21 20 21 20 20 17 19 18 17 16 19 20 21 22 21 19 13 16 15 19
4 5 6 6 5 6 8 9 12 12 11 11 13 14 14 14 15 18 19 19 19 19 21 21 20 19 20 20 18 20 19 19 20 20 21 22 22 22 21 20 19 17 19 18
4 4 4 5 4 5 6 9 10 12 11 13 12 13 14 15 16 18 19 18 19 19 21 20 20 19 19 20 20 21 19 18 20 20 19 20 21 20 20 20 21 19 20 20
4 4 3 5 4 5 6 9 10 12 13 13 12 13 14 16 17 18 19 19 19 18 20 21 20 19 19 19 18 17 18 16 13 17 15 17 14 17 19 20 20 21 19 19
3 3 4 3 4 4 7 8 10 11 12 14 13 14 15 16 17 17 20 20 19 20 17 18 17 17 17 17 17 17 15 15 11 12 12 13 17 19 19 17 17 17 17 17
3 4 5 4 4 4 5 9 9 10 11 14 14 15 16 16 17 17 19 20 20 18 17 15 15 12 15 18 17 17 17 12 12 12 12 15 18 20 19 18 18 18 16 17
3 3 3 4 4 5 4 6 8 8 10 12 16 15 16 15 15 16 17 18 16 18 13 11 15 14 16 17 18 15 14 12 12 10 12 12 15 19 19 17 14 17 15 16
3 3 4 4 4 5 4 6 6 7 10 12 16 15 15 16 16 14 15 17 17 15 8 11 11 13 16 14 14 13 10 10 10 6 9 11 15 18 19 16 14 16 15 15
3 3 4 4 4 4 5 6 6 7 9 10 11 16 15 17 17 13 14 14 14 11 12 12 10 10 13 13 15 13 13 11 8 10 9 14 16 19 17 14 15 14 14 14
4 4 4 5 4 5 5 6 6 6 7 9 9 11 12 13 18 13 13 17 15 14 14 11 9 10 8 12 12 15 14 13 12 12 12 14 16 17 15 14 13 13 12 12
4 4 5 5 5 6 6 7 6 7 8 9 10 12 16 16 18 21 14 13 15 15 13 11 10 12 9 10 10 14 16 15 14 14 14 13 12 12 12 12 10 10 10 10
4 5 5 5 6 6 6 7 7 9 9 8 11 14 15 16 17 20 21 16 16 14 12 8 8 10 12 8 13 13 14 15 15 12 13 12 11 11 10 9 8 8 8 7
5 6 6 6 6 5 5 6 7 8 9 9 9 12 15 15 18 17 19 16 14 12 11 7 10 10 11 9 10 13 14 14 12 11 13 11 10 9 9 8 7 7 6 5
5 5 5 5 5 5 6 6 6 7 7 9 9 11 12 14 14 13 15 13 12 12 12 10 11 12 10 9 8 13 12 12 13 12 11 9 8 7 7 6 5 5 4 3
4 5 5 5 5 6 7 8 10 10 8 9 8 10 11 12 12 10 11 12 11 12 11 10 10 11 9 6 10 12 11 11 10 9 9 7 8 5 5 4 4 3 3 3
5 5 5 6 5 6 7 9 9 9 9 9 9 10 10 11 9 9 9 10 10 10 9 8 8 9 6 9 10 10 9 9 9 8 8 7 6 5 4 4 4 3 2 2
5 6 6 6 7 8 9 9 8 9 9 9 6 10 10 10 8 7 8 7 8 9 7 7 9 7 8 9 10 10 9 9 7 7 6 6 5 4 4 4 3 2 1 1
6 6 7 7 8 9 10 8 9 8 8 7 7 8 9 10 6 7 6 5 7 8 8 8 7 7 7 6 6 8 7 7 6 5 4 4 4 4 4 3 3 2 0 -2
7 8 7 8 9 9 8 7 7 7 6 6 7 8 9 8 7 7 5 7 7 10 9 9 8 8 7 7 6 7 7 8 7 6 5 5 5 4 3 2 0 -1 -2 -2
9 9 9 9 7 6 7 6 6 7 7 6 7 7 8 6 8 7 7 8 7 9 8 9 9 6 7 7 7 7 7 7 6 6 5 5 4 3 1 -0 -2 -2 -2 -2
9 7 5 8 5 7 8 7 7 7 5 5 5 6 5 6 7 6 6 6 8 5 8 9 6 6 6 6 6 6 5 4 4 4 3 2 1 0 -1 -2 -3 -3 -3 -3
4 5 5 6 6 5 4 5 5 3 3 4 5 5 6 4 7 5 8 6 7 7 7 7 5 5 5 5 5 4 3 2 2 1 0 -1 -1 -2 -2 -2 -3 -3 -4 -4
4 4 5 4 3 3 3 3 3 3 3 4 5 5 6 5 7 6 6 7 8 6 5 5 4 4 4 4 3 2 1 1 1 0 -1 -2 -2 -2 -3 -3 -3 -4 -4 -5
3 3 4 3 4 3 3 3 3 3 2 3 4 5 6 6 6 7 7 8 7 5 4 3 3 3 3 3 2 2 2 1 0 -1 -1 -2 -2 -3 -3 -3 -3 -4 -4 -5
2 3 2 3 3 3 3 2 3 2 3 5 4 6 6 5 6 5 5 4 4 3 2 2 3 2 2 2 1 0 0 0 -0 -1 -1 -2 -2 -3 -4 -4 -4 -4 -5 -6

GFSNW_925_temp_042.txt.gz
Temp
5 5 5 5 5 7 6 7 6 8 9 10 11 12 12 14 16 17 17 17 17 18 18 18 18 19 20 18 17 19 18 16 16 19 20 19 19 18 17 14 18 14 12 15
5 5 5 5 5 7 6 7 8 8 10 11 10 13 13 13 15 15 16 16 17 18 19 19 17 17 20 17 18 17 17 16 16 17 18 19 20 19 17 14 13 14 13 16
5 5 5 6 5 6 6 7 7 9 9 12 11 12 13 13 15 15 16 16 17 18 18 17 19 19 19 17 17 15 17 15 17 17 18 18 19 19 17 16 13 15 14 17
5 5 5 5 5 6 6 6 8 10 9 9 11 12 13 12 13 15 15 15 15 17 17 18 18 18 18 18 15 17 17 17 16 18 19 19 19 20 16 17 17 17 18 15
5 5 5 5 6 6 5 6 8 9 9 10 10 11 12 12 13 14 14 14 15 15 15 17 19 18 17 18 16 16 16 17 18 18 17 17 19 18 17 17 18 16 17 17
5 4 5 5 5 5 5 6 7 9 10 10 10 11 12 12 14 14 15 15 15 15 16 17 17 16 17 17 17 15 15 14 13 17 15 17 14 16 17 17 17 17 16 16
4 5 5 5 5 5 6 6 8 9 9 10 11 11 12 13 14 14 15 15 15 16 17 17 16 15 15 15 15 14 13 13 11 11 12 14 18 17 17 16 16 16 17 16
4 5 4 4 4 5 5 6 7 8 6 10 11 12 12 13 13 14 15 15 16 16 17 15 16 13 16 15 13 13 13 11 11 12 12 15 18 16 16 16 16 15 14 13
4 4 4 4 4 4 5 6 4 6 8 10 12 12 12 12 12 12 13 15 15 16 12 11 14 13 15 15 16 13 12 10 12 9 12 13 15 16 16 17 15 14 13 12
4 4 4 5 4 4 4 6 4 4 7 9 11 12 11 12 12 11 12 13 14 14 7 10 11 13 15 14 14 13 10 9 10 6 9 12 14 16 16 16 15 13 13 12
4 4 5 5 4 4 4 5 3 4 7 8 9 9 11 12 12 11 11 12 12 10 12 11 11 9 12 12 14 13 14 11 9 7 9 14 14 16 15 14 13 12 12 11
4 4 4 4 4 4 4 4 3 4 5 7 7 8 9 10 11 12 11 13 12 13 12 9 8 9 6 12 13 13 15 14 12 13 13 14 13 15 14 12 12 12 11 10
3 4 4 3 4 4 4 5 4 3 5 6 7 8 11 11 11 13 12 10 13 12 11 10 10 11 9 11 11 13 13 12 13 14 14 13 12 11 11 12 12 10 10 9
3 3 3 4 4 4 4 4 4 4 6 5 7 11 10 12 12 11 12 14 11 10 10 9 8 10 10 9 13 13 12 12 11 11 11 11 11 9 9 7 7 7 6 6
3 3 3 4 4 4 4 4 5 5 6 7 8 9 11 11 11 11 11 12 11 10 9 6 10 10 10 8 10 11 11 12 12 13 13 13 12 7 7 7 6 6 5 4
3 3 3 3 4 4 4 4 4 4 6 7 7 9 9 11 11 11 10 12 10 10 10 7 10 11 12 11 11 14 12 11 12 15 11 8 7 5 6 5 4 4 4 3
3 4 4 4 4 4 5 5 6 6 6 7 6 6 9 11 11 10 10 10 9 10 9 8 10 10 11 7 11 13 10 10 8 7 8 7 7 5 4 4 3 3 2 2
3 4 4 4 4 5 5 6 7 7 7 7 6 7 8 10 10 10 9 8 9 9 8 6 8 8 6 10 10 8 8 8 7 6 6 7 4 3 3 2 2 2 1 0
3 4 4 4 5 5 7 8 7 8 8 5 5 8 9 8 8 8 8 7 8 8 7 8 9 7 11 10 8 8 8 9 5 4 4 4 3 2 2 2 1 1 1 1
3 4 6 4 6 6 6 6 6 7 8 7 7 7 9 8 5 7 7 6 8 10 9 8 7 9 7 6 7 6 5 5 5 4 3 3 2 2 2 2 2 2 1 0
6 5 4 6 7 7 6 5 5 6 7 6 7 7 9 8 8 7 5 7 7 10 9 9 8 9 7 5 6 6 5 5 6 5 5 4 3 2 1 0 -0 -1 -1 -1
6 6 8 7 6 5 6 6 5 6 7 6 6 7 8 6 7 7 6 7 6 10 7 9 9 7 5 5 5 5 5 5 5 4 4 3 3 2 0 -1 -1 -1 -2 -3
5 5 5 6 4 6 7 7 7 7 5 5 5 6 5 5 6 5 6 8 8 6 9 8 6 6 5 5 5 5 5 4 4 3 2 1 -0 -1 -1 -2 -2 -3 -3 -4
3 4 4 3 3 4 4 5 5 3 3 4 4 5 6 4 6 5 8 6 6 7 7 7 5 4 4 4 4 4 2 2 1 1 -0 -1 -1 -2 -2 -3 -3 -3 -3 -4
3 4 4 4 3 3 3 2 3 3 3 3 4 5 6 5 6 5 6 8 7 6 6 4 3 3 2 2 1 1 1 0 -0 -1 -2 -2 -3 -3 -3 -4 -4 -4 -4 -5
2 2 3 3 3 3 2 2 3 3 2 2 4 5 6 6 6 5 5 6 4 4 3 3 2 2 1 1 1 0 -0 -1 -1 -2 -2 -3 -3 -3 -4 -5 -5 -4 -5 -6
2 2 0 1 2 1 1 1 1 1 4 5 4 2 3 3 3 2 1 1 2 1 2 1 1 1 1 0 -0 -1 -1 -1 -2 -2 -3 -3 -4 -4 -5 -5 -6 -6 -6 -6

GFSNW_925_temp_048.txt.gz
Temp
6 6 6 6 6 5 5 6 6 9 7 7 8 9 14 17 19 20 19 20 20 20 21 21 21 23 24 24 25 23 25 24 23 24 24 24 26 25 25 23 23 23 23 24
6 6 6 6 5 5 5 5 6 8 9 8 8 12 13 16 18 19 19 19 20 20 20 20 22 23 24 23 24 24 23 23 22 22 23 23 24 24 25 24 22 23 21 23
6 6 6 6 5 5 6 5 6 7 7 13 12 12 12 14 17 18 19 19 20 19 19 20 19 21 20 21 24 19 22 24 23 22 24 25 23 24 25 24 22 23 23 25
6 6 6 6 5 5 5 5 8 8 8 9 14 14 14 14 15 17 19 18 19 19 19 19 19 20 19 19 16 21 23 23 23 24 25 25 25 25 24 24 24 24 24 25
5 5 6 6 5 5 5 5 9 11 12 11 12 13 13 15 16 17 17 18 19 20 20 20 18 19 19 21 19 21 22 23 23 22 24 23 24 25 25 24 25 25 25 25
5 5 5 6 5 4 5 6 11 13 12 11 11 13 14 14 16 17 18 18 18 18 19 20 18 18 18 20 20 20 21 22 21 21 22 22 18 22 24 24 24 24 24 25
5 5 5 6 5 4 5 8 10 10 11 11 11 12 14 14 15 16 17 18 17 19 18 18 17 18 18 19 20 21 20 20 21 20 15 17 24 23 25 25 25 25 25 26
5 5 5 5 5 4 5 7 9 10 10 13 12 12 13 14 15 15 17 17 17 17 17 17 16 15 16 18 19 19 20 20 19 18 20 23 21 21 22 23 24 26 25 26
5 5 5 5 5 4 5 7 9 11 11 12 14 13 12 13 14 15 16 17 16 16 16 16 16 17 17 19 17 16 18 18 20 17 20 19 24 25 24 23 23 26 25 24
5 5 5 5 4 4 5 6 8 10 11 13 14 12 11 13 14 15 15 15 15 16 15 14 15 17 19 17 17 14 15 16 17 19 19 22 23 22 22 21 23 25 25 24
5 5 5 5 4 4 5 6 7 10 10 9 11 13 13 14 14 14 16 15 14 14 14 15 16 15 18 19 20 18 17 17 16 19 17 18 21 20 23 25 22 23 22 22
6 5 5 4 4 5 6 4 5 6 9 5 6 7 8 9 16 16 16 17 16 16 15 16 17 14 13 19 18 19 18 20 21 20 21 23 21 24 23 23 24 21 22 21
5 5 4 4 4 5 5 4 5 6 7 9 6 6 9 8 10 14 15 17 17 16 18 16 16 15 17 15 18 20 19 17 18 18 23 22 21 22 21 21 22 21 21 20
5 4 4 4 5 4 4 4 6 8 7 7 9 7 8 9 9 12 14 17 15 16 15 16 13 14 17 18 20 18 21 17 19 20 22 18 19 20 22 19 17 17 19 19
4 4 4 4 4 4 5 5 6 7 10 7 7 9 8 7 8 12 13 14 16 15 14 11 14 17 16 14 15 18 18 19 18 20 23 21 24 23 21 19 17 17 17 16
4 4 4 3 4 5 6 4 5 5 7 7 6 10 10 8 8 11 14 15 15 15 16 15 17 16 16 14 17 20 19 19 20 21 17 16 14 14 18 18 17 16 15 16
4 3 3 4 5 6 7 7 6 5 6 7 6 8 10 10 9 12 12 14 14 15 14 14 16 15 15 13 15 19 20 19 17 14 13 15 13 15 11 13 12 11 13 12
3 3 4 4 5 6 7 5 5 5 8 8 7 8 9 12 12 10 11 11 12 14 14 13 15 15 13 15 18 19 17 14 13 13 11 12 11 10 9 9 10 10 10 9
3 3 3 4 5 6 4 4 5 6 8 6 5 8 10 11 10 9 8 10 9 12 12 14 15 14 14 16 17 17 15 14 14 10 10 10 10 9 8 8 8 8 6 6
3 4 4 4 5 4 4 4 5 6 6 6 6 7 8 9 7 9 10 7 9 10 11 12 12 14 12 10 10 11 11 11 10 10 9 8 8 8 7 7 7 6 5 4
5 4 4 5 6 5 6 6 6 6 5 6 9 10 9 9 9 9 9 9 7 10 10 12 11 10 7 7 9 9 8 8 10 11 10 10 9 7 6 4 4 4 2 1
5 4 6 6 8 8 7 6 6 6 8 7 8 8 8 8 9 8 7 9 7 10 7 10 9 6 5 5 6 6 7 8 8 8 8 7 7 6 5 3 2 0 -1 -2
4 5 5 6 5 6 7 8 8 8 5 5 6 7 8 7 7 6 8 10 10 6 8 8 6 4 4 3 3 2 2 3 3 3 3 2 2 1 0 -1 -2 -2 -2 -3
4 5 5 6 6 6 6 5 6 4 3 4 5 5 6 5 6 6 9 7 7 9 9 7 5 2 3 2 2 1 1 0 0 -0 -0 -1 -1 -1 -2 -2 -2 -2 -3 -3
3 5 5 4 3 2 2 2 4 3 2 3 4 5 6 6 7 6 8 8 7 6 5 3 2 1 2 2 1 0 -0 -1 -1 -1 -1 -1 -1 -2 -2 -3 -3 -4 -4 -5
2 0 1 1 2 1 1 1 1 1 2 2 4 6 6 5 5 5 4 6 3 2 1 1 1 2 1 1 0 -0 -1 -1 -1 -1 -2 -2 -3 -3 -4 -5 -5 -5 -5 -6
1 -0 -2 -2 -1 -1 -1 -1 -0 -0 3 4 5 3 2 5 4 2 1 0 -0 -1 -1 -2 -1 1 1 0 -0 -1 -1 -2 -2 -3 -3 -3 -3 -3 -3 -3 -5 -6 -6 -7